DLH48N LIML-EDDF

Flight info

Callsign DLH48N
Flight time N/A
Altitude 18000
Route PEPAG N851 ABESI/N0431F300 N851 UTAVO DCT ROLSA DCT LADOL T163 EMPAX EMPAX5B
Aircraft A320/M-SDE3FGHIRWY/LB1

Departure

Time 2026-05-04 16:14
Airport Milano Linate Airport (LIML)

Arrival

Time N/A
Airport Frankfurt Main Airport (EDDF)
Time Latitude Longitude Altitude Speed Heading
2026-05-04 15:47 45.45980 9.28102 366 ft 0 kts
2026-05-04 15:56 45.45977 9.28102 361 ft 2 kts
2026-05-04 15:56 45.45961 9.28101 364 ft 2 kts
2026-05-04 15:57 45.45944 9.28098 361 ft 2 kts
2026-05-04 15:57 45.45928 9.28094 361 ft 2 kts 17°
2026-05-04 15:57 45.45913 9.28086 367 ft 2 kts 33°
2026-05-04 15:57 45.45901 9.28070 362 ft 2 kts 71°
2026-05-04 15:58 45.45898 9.28058 361 ft 0 kts 99°
2026-05-04 16:00 45.45886 9.28080 353 ft 4 kts 136°
2026-05-04 16:01 45.45865 9.28106 354 ft 4 kts 139°
2026-05-04 16:01 45.45827 9.28149 354 ft 7 kts 148°
2026-05-04 16:01 45.45781 9.28161 354 ft 7 kts 178°
2026-05-04 16:01 45.45702 9.28162 354 ft 14 kts 180°
2026-05-04 16:02 45.45602 9.28161 357 ft 15 kts 181°
2026-05-04 16:02 45.45495 9.28157 354 ft 16 kts 182°
2026-05-04 16:02 45.45258 9.28062 354 ft 20 kts 207°
2026-05-04 16:03 45.45116 9.28055 354 ft 19 kts 174°
2026-05-04 16:03 45.44993 9.28066 354 ft 14 kts 187°
2026-05-04 16:03 45.44935 9.27969 355 ft 12 kts 249°
2026-05-04 16:03 45.44857 9.27936 358 ft 13 kts 169°
2026-05-04 16:04 45.44783 9.27951 357 ft 8 kts 185°
2026-05-04 16:04 45.44643 9.27963 359 ft 22 kts 175°
2026-05-04 16:04 45.44480 9.27979 357 ft 25 kts 176°
2026-05-04 16:05 45.44303 9.27998 355 ft 26 kts 175°
2026-05-04 16:05 45.44114 9.28019 357 ft 28 kts 175°
2026-05-04 16:05 45.43763 9.28057 355 ft 14 kts 175°
2026-05-04 16:06 45.43669 9.28067 361 ft 13 kts 175°
2026-05-04 16:06 45.43600 9.28075 355 ft 3 kts 175°
2026-05-04 16:07 45.43564 9.28079 355 ft 5 kts 176°
2026-05-04 16:07 45.43523 9.28083 355 ft 0 kts 175°
2026-05-04 16:09 45.43502 9.28085 358 ft 5 kts 176°
2026-05-04 16:09 45.43461 9.28065 358 ft 0 kts 220°
2026-05-04 16:10 45.43460 9.28064 358 ft 2 kts 222°
2026-05-04 16:11 45.43449 9.28033 357 ft 3 kts 251°
2026-05-04 16:11 45.43444 9.28007 359 ft 4 kts 257°
2026-05-04 16:12 45.43442 9.27966 355 ft 0 kts 267°
2026-05-04 16:12 45.43446 9.27864 357 ft 13 kts 292°
2026-05-04 16:13 45.43548 9.27811 355 ft 0 kts 358°
2026-05-04 16:13 45.44339 9.27722 357 ft 127 kts 355°
2026-05-04 16:14 45.46456 9.27419 1368 ft 159 kts 344°
2026-05-04 16:14 45.48761 9.26355 2341 ft 195 kts 340°
2026-05-04 16:15 45.53188 9.24158 4103 ft 240 kts 338°
2026-05-04 16:16 45.56510 9.22478 5631 ft 267 kts 343°
2026-05-04 16:16 45.62172 9.20740 8239 ft 289 kts 348°
2026-05-04 16:17 45.66213 9.19554 9975 ft 304 kts 347°
2026-05-04 16:18 45.72952 9.17302 11569 ft 353 kts 344°
2026-05-04 16:18 45.75348 9.16425 12412 ft 357 kts 343°
2026-05-04 16:19 45.82670 9.13743 14804 ft 368 kts 343°
2026-05-04 16:19 45.87662 9.11852 16254 ft 374 kts 341°
2026-05-04 16:20 45.95248 9.08528 18363 ft 388 kts 340°
2026-05-04 16:20 46.00564 9.06750 19549 ft 399 kts 351°
2026-05-04 16:21 46.08964 9.05418 21345 ft 410 kts 351°
2026-05-04 16:22 46.14685 9.04493 22471 ft 418 kts 351°
2026-05-04 16:22 46.23469 9.03209 23944 ft 429 kts 353°
2026-05-04 16:23 46.32469 9.02069 25323 ft 437 kts 353°
2026-05-04 16:24 46.44792 9.01498 27123 ft 449 kts 359°
2026-05-04 16:25 46.51081 9.01619 27926 ft 455 kts 359°
2026-05-04 16:26 46.63894 9.01539 29514 ft 466 kts 358°
2026-05-04 16:26 46.73700 9.01415 30496 ft 473 kts 358°
2026-05-04 16:27 46.80317 9.01358 31101 ft 477 kts 358°
2026-05-04 16:28 46.90293 9.01271 31994 ft 476 kts 358°
2026-05-04 16:28 46.99931 9.01201 32010 ft 455 kts 357°
2026-05-04 16:29 47.12562 9.01073 31984 ft 454 kts 357°
2026-05-04 16:31 47.28335 9.00923 31970 ft 453 kts 357°
2026-05-04 16:32 47.47227 9.00760 31885 ft 454 kts 357°
2026-05-04 16:33 47.53565 9.00693 30593 ft 456 kts 357°
2026-05-04 16:33 47.77297 9.00468 25468 ft 440 kts 357°
2026-05-04 16:34 48.01178 9.00042 20325 ft 420 kts 356°
2026-05-04 16:34 48.12573 8.99483 18782 ft 391 kts 356°
2026-05-04 16:35 48.43728 8.98586 16014 ft 363 kts 357°
2026-05-04 16:35 48.63803 8.98028 14238 ft 351 kts 357°
2026-05-04 16:36 48.66241 8.97964 14037 ft 350 kts 357°
2026-05-04 16:36 48.70241 8.97866 13716 ft 340 kts 357°
2026-05-04 16:37 48.74864 8.97747 13297 ft 325 kts 357°
2026-05-04 16:37 48.78991 8.97625 12906 ft 315 kts 357°